Holesov, Czech Republic

2:26 PM CET on February 21, 2017 (GMT +0100)
Holesov

Weather History for LKHO - April, 2014

Change the Weather History Date:

Thursday, April 24, 2014

  Actual Average Record
Temperature  
Mean Temperature 62 °F -  
Max Temperature 71 °F - - ()
Min Temperature 53 °F - - ()
Degree Days  
Heating Degree Days 3    
Growing Degree Days 12 (Base 50)    
Moisture  
Dew Point 50 °F    
Average Humidity 58    
Maximum Humidity 82    
Minimum Humidity 32    
Precipitation  
Precipitation 0.00 in - - ()
Sea Level Pressure  
Sea Level Pressure 30.00 in    
Wind  
Wind Speed 10 mph ()    
Max Wind Speed 18 mph    
Max Gust Speed -    
Visibility 7.9 miles    
Events      
T = Trace of Precipitation, MM = Missing Value Source: Averaged Metar Reports

Daily Weather History Graph

Daily Weather History Graph

Search for Another Location

Airport or City:

Trip Planner

Search our weather history database for the weather conditions in past years. The results will help you decide how hot, cold, wet, or windy it might be!

Date:

Astronomy

Apr. 24, 2014 Rise Set
Actual Time 5:41 AM CEST 7:55 PM CEST
Civil Twilight 5:06 AM CEST 8:30 PM CEST
Nautical Twilight 4:22 AM CEST 9:14 PM CEST
Astronomical Twilight 3:33 AM CEST 10:04 PM CEST
Moon 3:10 AM CEST (4/24) 2:24 PM CEST (4/24)
Length of Visible Light 15h 24m
Length of Day
14h 14m
Waning Crescent, 27% of the Moon is Illuminated
Apr 24
Waning Crescent
Apr 29
New
May 7
First Quarter
May 14
Full
May 21
Last Quarter

Hourly Weather History & Observations

Time (CEST) Temp. Dew Point Humidity Pressure Visibility Wind Dir Wind Speed Gust Speed Precip Events Conditions
12:00 AM 58 °F 52 °F 73% 30.06 in 5 mi NE 8.9 mph - -   Mist
1:00 AM 58 °F 50 °F 67% 30.06 in 9 mi NNE 13.4 mph - -   Clear
2:00 AM 57 °F 50 °F 70% 30.05 in 11 mi NE 11.2 mph - -   Clear
3:00 AM 56 °F 50 °F 75% 30.05 in 6 mi East 4.5 mph - -   Clear
4:00 AM 56 °F 51 °F 80% 30.04 in 4 mi ENE 4.5 mph - -   Mist
5:00 AM 56 °F 52 °F 80% 30.04 in 3 mi NE 8.9 mph - -   Mist
6:00 AM 55 °F 51 °F 82% 30.04 in 2 mi ENE 6.7 mph - -   Mist
7:00 AM 55 °F 51 °F 81% 30.04 in 2 mi NE 15.7 mph - -   Mist
8:00 AM 57 °F 50 °F 71% 30.04 in 2 mi NE 11.2 mph - -   Mist
9:00 AM 58 °F 50 °F 68% 30.04 in 3 mi NNE 13.4 mph - -   Mist
10:00 AM 58 °F 50 °F 66% 30.04 in 3 mi NNE 15.7 mph - -   Mist
11:00 AM 62 °F 51 °F 57% 30.03 in 7 mi NNE 17.9 mph - -   Scattered Clouds
12:00 PM 65 °F 51 °F 52% 30.02 in 7 mi NNE 15.7 mph - -   Scattered Clouds
1:00 PM 67 °F 52 °F 48% 30.00 in 9 mi NE 15.7 mph - -   Partly Cloudy
2:00 PM 69 °F 52 °F 44% 29.99 in 9 mi NE 13.4 mph - -   Partly Cloudy
3:00 PM 70 °F 51 °F 41% 29.96 in 12 mi NNE 17.9 mph - -   Partly Cloudy
4:00 PM 71 °F 48 °F 33% 29.94 in 12 mi NNE 17.9 mph - -   Scattered Clouds
5:00 PM 71 °F 47 °F 32% 29.93 in 12 mi NNE 15.7 mph - -   Scattered Clouds
6:00 PM 70 °F 47 °F 33% 29.93 in 12 mi NNE 13.4 mph - -   Partly Cloudy
7:00 PM 68 °F 47 °F 35% 29.94 in 12 mi NNE 11.2 mph - -   Partly Cloudy
8:00 PM 66 °F 47 °F 40% 29.95 in 12 mi NNE 11.2 mph - -   Partly Cloudy
9:00 PM 63 °F 49 °F 51% 29.96 in 12 mi NE 13.4 mph - -   Partly Cloudy
10:00 PM 62 °F 50 °F 55% 29.96 in 12 mi NNE 15.7 mph - -   Partly Cloudy
11:00 PM 60 °F 49 °F 59% 29.96 in 12 mi NNE 13.4 mph - -   Scattered Clouds